Weather History for LIPS - May, 2013

Change the Weather History Date:

Tuesday, May 28, 2013

  Actual Average Record
Temperature  
Mean Temperature 62 °F -  
Max Temperature 68 °F 79 °F - (-1)
Min Temperature 56 °F 59 °F - (-1)
Degree Days  
Heating Degree Days 3    
Growing Degree Days 12 (Base 50)    
Moisture  
Dew Point 55 °F    
Average Humidity 81    
Maximum Humidity 94    
Minimum Humidity 54    
Precipitation  
Precipitation 0.00 in 0.14 in - ()
Sea Level Pressure  
Sea Level Pressure 29.77 in    
Wind  
Wind Speed 6 mph ()    
Max Wind Speed 10 mph    
Max Gust Speed -    
Visibility 5.1 miles    
Events Rain    
Averages and records for this station are not official NWS values.
T = Trace of Precipitation, MM = Missing Value Source: Averaged Metar Reports

Daily Weather History Graph

Daily Weather History Graph

Search for Another Location

Airport or City:

Trip Planner

Search our weather history database for the weather conditions in past years. The results will help you decide how hot, cold, wet, or windy it might be!

Date:

Astronomy

May. 28, 2013 Rise Set
Actual Time 5:28 AM CEST 8:50 PM CEST
Civil Twilight 4:51 AM CEST 9:26 PM CEST
Nautical Twilight 4:03 AM CEST 10:14 PM CEST
Astronomical Twilight 3:03 AM CEST 11:15 PM CEST
Moon 11:55 PM CEST (5/28) 9:00 AM CEST (5/28)
Length of Visible Light 16h 35m
Length of Day
15h 21m
Waning Gibbous, 85% of the Moon is Illuminated
May 28
Waning Gibbous
May 31
Last Quarter
Jun 8
New
Jun 16
First Quarter
Jun 23
Full

Hourly Weather History & Observations

Time (CEST) Temp. Dew Point Humidity Pressure Visibility Wind Dir Wind Speed Gust Speed Precip Events Conditions
12:55 AM 59.0 °F 57.2 °F 94% 29.83 in - North - - N/A   Mostly Cloudy
1:55 AM 59.0 °F 55.4 °F 88% 29.83 in - North - - N/A   Mostly Cloudy
2:00 AM 59 °F 56 °F 87% 29.83 in 6 mi NNE 10.4 mph - -   Mostly Cloudy
2:55 AM 59.0 °F 55.4 °F 88% 29.80 in - North - - N/A   Mostly Cloudy
3:55 AM 57.2 °F 55.4 °F 94% 29.80 in - North - - N/A   Scattered Clouds
4:55 AM 57.2 °F 55.4 °F 94% 29.77 in - North - - N/A   Scattered Clouds
5:00 AM 58 °F 55 °F 86% 29.80 in 4 mi NNE 5.8 mph - -   Mist
5:55 AM 57.2 °F 53.6 °F 88% 29.80 in - North - - N/A   Scattered Clouds
6:55 AM 57.2 °F 53.6 °F 88% 29.80 in - North - - N/A   Scattered Clouds
7:55 AM 59.0 °F 55.4 °F 88% 29.80 in - North - - N/A   Scattered Clouds
8:00 AM 60 °F 54 °F 76% 29.81 in 6 mi NE 6.9 mph - -   Partly Cloudy
8:55 AM 60.8 °F 53.6 °F 77% 29.80 in - North - - N/A   Mostly Cloudy
9:55 AM 62.6 °F 55.4 °F 77% 29.80 in - North - - N/A   Mostly Cloudy
10:55 AM 62.6 °F 55.4 °F 77% 29.80 in - North - - N/A   Scattered Clouds
11:00 AM 63 °F 55 °F 67% 29.81 in 5 mi NE 8.1 mph - -   Mist
11:55 AM 64.4 °F 53.6 °F 68% 29.77 in - North - - N/A   Scattered Clouds
12:55 PM 68.0 °F 53.6 °F 60% 29.77 in - North - - N/A   Scattered Clouds
1:55 PM 66.2 °F 53.6 °F 64% 29.77 in - North - - N/A   Mostly Cloudy
2:00 PM 66 °F 53 °F 54% 29.77 in 4 mi ENE 8.1 mph - -   Mist
2:55 PM 66.2 °F 55.4 °F 68% 29.74 in - North - - N/A   Mostly Cloudy
3:55 PM 60.8 °F 57.2 °F 88% 29.74 in - North - - N/A   Mostly Cloudy
4:55 PM 60.8 °F 55.4 °F 82% 29.74 in - North - - N/A   Mostly Cloudy
5:00 PM 60 °F 56 °F 82% 29.76 in 5 mi NE 9.2 mph - -   Mist
5:55 PM 59.0 °F 55.4 °F 88% 29.74 in - North - - N/A   Mostly Cloudy
6:55 PM 60.8 °F 55.4 °F 82% 29.74 in - North - - N/A Rain Light Rain
7:55 PM 60.8 °F 55.4 °F 82% 29.71 in - North - - N/A   Mostly Cloudy
8:55 PM 59.0 °F 55.4 °F 88% 29.71 in - North - - N/A   Mostly Cloudy
9:55 PM 59.0 °F 55.4 °F 88% 29.71 in - North - - N/A   Mostly Cloudy
10:55 PM 59.0 °F 55.4 °F 88% 29.71 in - North - - N/A   Mostly Cloudy
11:00 PM 59 °F 55 °F 84% 29.72 in 6 mi NE 3.5 mph - -   Partly Cloudy
11:55 PM 59.0 °F 55.4 °F 88% 29.71 in - North - - N/A   Mostly Cloudy